EW9477 Weather Reports


time (UTC)temp
C
wind
direction
speed
KPH
gust
KPH
rain 1hr
cm
rain 24hr
cm
rain mn
cm
humidity
%
barometer
mb
20260506143034 16 174 4.8 11.3 0.00 0.00 0.00 81 1006.6
20260506141512 16 165 4.8 12.9 0.00 0.00 0.00 82 1006.8
20260506140013 16 189 4.8 11.3 0.00 0.00 0.00 81 1006.9
20260506134509 16 178 4.8 14.5 0.00 0.00 0.00 83 1007.2
20260506133008 16 217 6.4 12.9 0.00 0.00 0.00 82 1007.1
20260506131508 15 159 4.8 9.7 0.00 0.00 0.00 84 1007.0
20260506130003 15 177 4.8 16.1 0.00 0.00 0.00 85 1006.8
20260506124501 15 166 3.2 14.5 0.00 0.00 0.00 84 1006.9
20260506123059 15 163 3.2 11.3 0.00 0.00 0.00 85 1007.2
20260506121556 15 28 4.8 14.5 0.00 0.00 0.00 86 1007.2
20260506120054 15 162 3.2 14.5 0.00 0.00 0.00 86 1007.4
20260506114552 14 159 3.2 11.3 0.00 0.00 0.00 88 1007.3
20260506113056 13 207 3.2 11.3 0.00 0.00 0.00 89 1007.2
20260506111550 13 152 3.2 9.7 0.00 0.00 0.00 90 1007.1
20260506110053 12 181 3.2 8.0 0.00 0.00 0.00 90 1007.3
20260506104544 12 148 3.2 8.0 0.00 0.00 0.00 90 1007.1
20260506103047 12 108 1.6 12.9 0.00 0.00 0.00 90 1007.2
20260506101552 12 221 1.6 16.1 0.00 0.00 0.00 90 1007.1
20260506100038 12 169 1.6 11.3 0.00 0.00 0.00 90 1007.1
20260506094546 12 164 3.2 8.0 0.00 0.00 0.00 90 1007.1
20260506093036 12 146 3.2 11.3 0.00 0.00 0.00 90 1007.1
20260506091536 12 192 1.6 12.9 0.00 0.00 0.00 90 1007.0
20260506090036 12 164 3.2 8.0 0.00 0.00 0.00 90 1007.3
20260506084534 12 150 3.2 9.7 0.00 0.00 0.00 90 1007.3
20260506083032 12 133 3.2 6.4 0.00 0.00 0.00 89 1007.5
20260506081530 12 184 1.6 8.0 0.00 0.00 0.00 89 1007.3
20260506073026 12 173 4.8 14.5 0.00 0.00 0.00 89 1007.7
20260506071526 12 269 3.2 12.9 0.00 0.00 0.00 89 1007.7
20260506061519 13 197 1.6 8.0 0.00 0.00 0.00 87 1007.6
20260506044511 13 294 3.2 12.9 0.00 0.00 0.00 85 1007.9
20260506043009 13 128 3.2 12.9 0.00 0.00 0.00 84 1007.9
20260506041517 14 209 6.4 14.5 0.00 0.00 0.00 83 1007.9
20260506040006 14 178 4.8 17.7 0.00 0.00 0.00 83 1007.9
20260506034507 14 290 4.8 17.7 0.00 0.00 0.00 82 1007.9
20260506033004 15 173 4.8 14.5 0.00 0.00 0.00 82 1008.0
20260506031507 15 178 3.2 19.3 0.00 0.00 0.00 82 1007.9
20260506030002 15 167 1.6 11.3 0.00 0.00 0.00 82 1008.0
20260506024502 15 163 3.2 11.3 0.00 0.00 0.00 81 1007.9
20260506023002 15 161 3.2 8.0 0.00 0.00 0.00 81 1007.9
20260506021502 15 161 3.2 25.7 0.00 0.00 0.00 79 1007.9
20260506020100 15 184 3.2 17.7 0.00 0.00 0.00 77 1007.8
20260506014600 15 165 4.8 11.3 0.00 0.00 0.00 77 1007.7
20260506013059 15 138 3.2 12.9 0.00 0.00 0.00 76 1007.6
20260506011558 16 180 8.0 16.1 0.00 0.00 0.00 76 1007.3
20260506010057 16 140 4.8 24.1 0.00 0.00 0.00 74 1007.2
20260506004558 16 202 4.8 14.5 0.00 0.00 0.00 74 1007.1
20260506003056 16 164 6.4 14.5 0.00 0.00 0.00 73 1006.9
20260506001616 16 214 4.8 17.7 0.00 0.00 0.00 73 1006.8
20260506000054 16 200 4.8 17.7 0.00 0.00 0.00 73 1006.7
20260505234554 16 176 4.8 19.3 0.00 0.00 0.00 72 1006.4
20260505233057 16 146 4.8 17.7 0.00 0.00 0.00 71 1006.0
20260505231556 16 57 8.0 20.9 0.00 0.00 0.00 71 1005.9
20260505224551 17 169 6.4 14.5 0.00 0.00 0.00 69 1005.8
20260505223057 17 134 6.4 16.1 0.00 0.00 0.00 68 1005.6
20260505221553 17 207 11.3 33.8 0.00 0.00 0.00 66 1005.6
20260505220050 18 162 6.4 29.0 0.00 0.00 0.00 65 1005.6
20260505214600 18 254 4.8 17.7 0.00 0.00 0.00 65 1005.5
20260505213056 18 171 4.8 17.7 0.00 0.00 0.00 65 1005.4
20260505211547 18 219 6.4 16.1 0.00 0.00 0.00 64 1005.1
20260505210051 19 171 6.4 14.5 0.00 0.00 0.00 63 1005.3
20260505204545 19 140 3.2 9.7 0.00 0.00 0.00 63 1005.2
20260505203048 19 183 4.8 12.9 0.00 0.00 0.00 63 1005.2
20260505201551 20 190 4.8 14.5 0.00 0.00 0.00 61 1005.3
20260505200042 21 155 4.8 14.5 0.00 0.00 0.00 59 1005.5
20260505194541 21 196 4.8 14.5 0.00 0.00 0.00 59 1005.7
20260505193045 21 188 4.8 16.1 0.00 0.00 0.00 59 1005.9
20260505191545 21 166 4.8 14.5 0.00 0.00 0.00 59 1006.3
20260505190037 21 219 3.2 11.3 0.00 0.00 0.00 60 1006.5
20260505184532 21 143 4.8 14.5 0.00 0.00 0.00 60 1006.6
20260505183045 21 151 4.8 11.3 0.00 0.00 0.00 60 1006.8
20260505181530 21 212 4.8 12.9 0.00 0.00 0.00 61 1006.9
20260505180035 21 149 4.8 12.9 0.00 0.00 0.00 60 1007.0
20260505174536 21 196 6.4 16.1 0.00 0.00 0.00 59 1007.1
20260505173036 21 180 3.2 12.9 0.00 0.00 0.00 61 1007.1
20260505171530 21 185 4.8 11.3 0.00 0.00 0.00 62 1007.2
20260505170026 21 143 6.4 12.9 0.00 0.00 0.00 59 1007.3
20260505164533 22 40 3.2 12.9 0.00 0.00 0.00 57 1007.3
20260505163024 22 233 3.2 9.7 0.00 0.00 0.00 59 1007.5
20260505161521 22 187 3.2 8.0 0.00 0.00 0.00 57 1007.7
20260505153020 21 195 3.2 8.0 0.00 0.00 0.00 60 1007.9
20260505151509 21 163 3.2 8.0 0.00 0.00 0.00 60 1008.2